Regional Weather Roundup
Issued by NWS Cleveland, OH

Home | Current Version | Previous Version | Text Only | Print | Product List | Glossary Off
Versions: 1 2 3 4 5 6 7 8 9 10 11 12 13 14 15 16 17 18 19 20 21 22 23 24 25 26 27 28 29 30 31 32 33 34 35 36 37 38 39 40 41 42 43 44 45 46 47 48 49 50

975
ASUS41 KCLE 171810
RWRCLE
OHIO REGIONAL WEATHER ROUNDUP
NATIONAL WEATHER SERVICE CLEVELAND, OH
100 PM EST TUE JAN 17 2017

NOTE: "FAIR" INDICATES FEW OR NO CLOUDS BELOW 12,000 FEET WITH NO
SIGNIFICANT WEATHER AND/OR OBSTRUCTIONS TO VISIBILITY.

OHZ001>008-015>018-024>027-034-035-043-044-171900-
   NORTHWEST OHIO

CITY           SKY/WX    TMP DP  RH WIND       PRES   REMARKS
DEFIANCE       CLOUDY    50  44  80 SW8G18    29.82S
FINDLAY        PTSUNNY   55  46  71 W20G29    29.82S
TOLEDO EXPRESS CLOUDY    49  47  93 SW21G28   29.79F
TOLEDO EXEC    CLOUDY    51  48  89 SW15      29.80S
LIMA           PTSUNNY   53  48  83 SW15G26   29.84F
$$

OHZ009>014-019>023-028>033-038-089-171900-
   NORTHEAST OHIO

CITY           SKY/WX    TMP DP  RH WIND       PRES   REMARKS
CLE-HOPKINS    CLOUDY    61  52  72 W17       29.81F
CLE-LAKEFRONT  CLOUDY    60  53  77 SW17      29.77F
CUY CO. ARPT   PTSUNNY   59 N/A N/A SW14      29.79F
LORAIN-ELYRIA  CLOUDY    57  48  72 W17G25    29.80S
ASHTABULA      LGT RAIN  54  53  97 S13G21    29.79F FOG
AKRON-CANTON   CLOUDY    58  52  80 SW15      29.81F
WOOSTER        PTSUNNY   58  49  72 W16G26    29.81F
MANSFIELD      CLOUDY    56  48  74 SW16G33   29.82S
YOUNGSTOWN     LGT RAIN  54  52  93 S8        29.82F
$$

OHZ042-051>053-060>062-070>072-077>081-171900-
  SOUTHWEST OHIO

CITY           SKY/WX    TMP DP  RH WIND       PRES   REMARKS
CINC-COVINGTON CLOUDY    58  52  80 W15G24    29.90F
CINC-LUNKEN    PTSUNNY   61  54  77 W13       29.90S
HAMILTON       CLOUDY    58  52  80 W9        29.90F
DAYTON         CLOUDY    54  49  83 W15G24    29.88F
WRIGHT-PAT AFB MOSUNNY   57  52  85 SW15      29.87S
DAYTON GENERAL CLOUDY    55  50  83 W12       29.88F
WILMINGTON     CLOUDY    56  52  86 W10       29.88S
$$

OHZ036-037-039>041-045>050-054>059-063>069-073>076-082>088-171900-
  CENTRAL AND SOUTHEAST OHIO

CITY           SKY/WX    TMP DP  RH WIND       PRES   REMARKS
COLUMBUS       PTSUNNY   64  53  67 W20       29.85S
OSU AIRPORT    CLOUDY    58  52  80 W16G23    29.85F
BOLTON FIELD   CLOUDY    59  52  77 W12       29.87S
RICKENBACK AFB   N/A     59  53  78 W17       29.86S
NEWARK         CLOUDY    63  53  70 SW14G23   29.83F
MARION         CLOUDY    57  50  77 W14       29.85S
LANCASTER      PTSUNNY   67  55  65 SW18G26   29.85F
ZANESVILLE     PTSUNNY   62  54  74 SW10G20   29.85F
NEW PHILLY     NOT AVBL
$$




USA.gov is the U.S. government's official web portal to all federal, state and local government web resources and services.